User: anonymous   Login
Location: Unspecified
(0.0000°N, 0.0000°E)
Time: 01:08:52
(UTC+00:00)
Language:

NOSS 2-3 (C) - Orbit

View from above orbital plane
View from above orbital plane
View from above satellite
View from above satellite

Ground track
Ground track

The orbit data is extracted from the following two-line orbital elements,

1 23908U 96029C   17288.26721712 0.00000000  00000-0  00000-0 0    05
2 23908  63.3743 105.0865 0613000  13.0945 346.9055 13.40860303    07
Epoch (UTC): 15 October 2017 06:24:47
Eccentricity: 0.0613000
inclination: 63.3743°
perigee height: 647 km
apogee height: 1565 km
right ascension of ascending node: 105.0865°
argument of perigee: 13.0945°
revolutions per day: 13.40860303
mean anomaly at epoch: 346.9055°
orbit number at epoch: 0

The dashed part of the orbit path shows where the satellite is in the earth's shadow,  

DLR